This demonstration page uses our WeatherBlox Daily Observations layout. Learn more.

Left ArrowRight Arrow

41.86663, -103.66717

Hourly Observations for November 29, 2020

Temp ( °F °C ) Dew Point ( °F °C ) Humidity (%) Winds ( mph kmh ) Pressure ( in mb ) Visibility ( mi km ) Precip ( " mm )
12:53 am 00:53 Clear 33 0.6 13 -10.6 43 43 WNW 9 15 30.27 1025 10 16 0.00 0.00
1:53 am 01:53 Clear 25 -3.9 10 -12.2 53 53 W 8 13 30.32 1027 10 16 0.00 0.00
2:53 am 02:53 Clear 27 -2.8 12 -11.1 53 53 NW 7 11 30.35 1028 10 16 0.00 0.00
3:53 am 03:53 Clear 22 -5.6 10 -12.2 60 60 WNW 8 13 30.39 1029 10 16 0.00 0.00
4:53 am 04:53 Clear 24 -4.4 11 -11.7 57 57 WNW 10 17 30.45 1031 10 16 0.00 0.00
5:53 am 05:53 Clear 22 -5.6 12 -11.1 66 66 W 5 7 30.49 1033 10 16 0.00 0.00
6:53 am 06:53 Clear 20 -6.7 11 -11.7 68 68 Calm 30.53 1034 10 16 0.00 0.00
7:53 am 07:53 Mostly Cloudy 28 -2.2 14 -10 56 56 NW 5 7 30.55 1035 10 16 0.00 0.00
8:53 am 08:53 Sunny 32 0 13 -10.6 45 45 NW 9 15 30.58 1036 10 16 0.00 0.00
9:53 am 09:53 Sunny 35 1.7 12 -11.1 38 38 WNW 9 15 30.55 1035 10 16 0.00 0.00
10:53 am 10:53 Sunny 39 3.9 11 -11.7 31 31 WNW 10 17 30.53 1034 10 16 0.00 0.00
11:53 am 11:53 Sunny 42 5.6 8 -13.3 24 24 N 15 24 30.50 1033 10 16 0.00 0.00
12:53 pm 12:53 Sunny 43 6.1 6 -14.4 22 22 WNW 13 20 30.49 1033 10 16 0.00 0.00
1:53 pm 13:53 Sunny 44 6.7 5 -15 20 20 NW 9 15 30.50 1033 10 16 0.00 0.00
2:53 pm 14:53 Sunny 43 6.1 4 -15.6 20 20 NNW 12 19 30.49 1033 10 16 0.00 0.00
3:53 pm 15:53 Sunny 39 3.9 6 -14.4 25 25 NW 7 11 30.52 1034 10 16 0.00 0.00
4:53 pm 16:53 Clear 35 1.7 7 -13.9 31 31 Calm 30.52 1034 10 16 0.00 0.00
6:53 pm 18:53 Clear 19 -7.2 2 -16.7 47 47 ENE 5 7 30.58 1036 10 16 0.00 0.00
7:53 pm 19:53 Clear 18 -7.8 3 -16.1 52 52 NNE 3 6 30.56 1035 10 16 0.00 0.00
8:53 pm 20:53 Clear 15 -9.4 4 -15.6 61 61 NNE 3 6 30.54 1034 10 16 0.00 0.00
9:53 pm 21:53 Clear 14 -10 3 -16.1 61 61 ESE 3 6 30.52 1033 10 16 0.00 0.00
10:53 pm 22:53 Clear 16 -8.9 4 -15.6 59 59 E 5 7 30.47 1032 10 16 0.00 0.00
11:53 pm 23:53 Clear 14 -10 4 -15.6 64 64 Calm 30.44 1031 10 16 0.00 0.00

Powered by AerisWeather